Погода в Приморском

Россия / Челябинская область     53°32′47″N   59°07′03″E
темп.,
°C
ветер,
м/с
пор.,
м/с
влажн.,
%
обл.,
%
осадки,
мм/ч
давл.,
гПа
погр.,
м
31 июля, сб
сб3123:00+18зюз11761 0.0 100811
02:00+17юз22822 0.0 100938
05:00+16зюз228579 0.0 101025
08:00+20з1270100 0.0 1010154
11:00+26зюз354838 0.0 10101085
14:00+26зюз374992 0.0 1009371
17:00+31з493084 0.0 10073067
20:00+23ю365616 0.4 1008155
1 августа, вс
вс123:00+20ю496988 0.4 1010194
02:00+20юз376469 0.1 1010149
05:00+19зюз247019 0.1 101075
08:00+22з366018 0.0 1011259
11:00+27зсз47442 0.0 10111660
14:00+27зсз3644100 0.0 10111474
17:00+27сз58420 0.0 10121580
20:00+24сз3651100 0.0 1012352
2 августа, пн
пн223:00+20зюз225742 0.0 101319
02:00+19зюз115713 0.0 101413
05:00+18з115968 0.0 101411
08:00+21зсз1251100 0.0 1015133
11:00+27ссз463886 0.0 10151455
14:00+29ссз462963 0.0 10142519
17:00+30ссз45275 0.0 10142408
20:00+26ссз37415 0.0 1014345
3 августа, вт
вт323:00+21с23505 0.0 101562
02:00+19ссз115963 0.0 101616
05:00+18зюз116092 0.0 101611
08:00+22юз23475 0.0 1016172
11:00+29зюз23315 0.0 1014697
14:00+33сз26246 0.0 10133291
17:00+33зсз142319 0.0 10122925
20:00+29ююв37374 0.0 1012224
4 августа, ср
ср423:00+25юз234616 0.4 101342
02:00+23в114924 0.0 101311
05:00+21зюз12556 0.0 101418
08:00+24з124413 0.0 1014145
11:00+31з222813 0.1 1013570
14:00+35сз24217 0.0 10122829
17:00+24ю8125166 0.1 1013304
20:00+22ююз71366100 1.6 1013264